[[{"header":{"parameterUnit":"m.s-1","parameterCategory":1,"la1":30.2991,"la2":30.254,"lo1":-89.0895,"lo2":-89.0444,"dy":0.0017,"dx":0.0017,"nx":28,"ny":28,"refTime":"2024-04-28T09:00:00:Z","depth":0,"parameterNumber":2,"parameterNumberName":"U-component_of_WINDS"},"data":[0,0,0,0,0,0,0,0,0,0,0,0,0,0,0,0,0,0,0,0,0,0,0,0,0,0,0,0,0,0,0,0,0,0,0,0,0,0,0,0,0,0,0,0,0,0,0,0,0,0,0,0,0,0,0,0,0,0,-7.7284,-7.7285,0,-7.7401,-7.7403,-7.7404,-7.7334,-7.733,-7.7327,-7.7324,-7.7441,-7.7447,-7.7453,0,0,0,0,0,0,0,0,0,0,0,0,0,-7.6997,-7.7003,-7.7284,-7.7286,-7.7287,-7.7401,-7.7403,-7.7404,-7.7334,-7.733,-7.7326,-7.7322,-7.7439,-7.7446,-7.7453,0,0,0,0,0,0,0,0,0,0,0,0,0,-7.7119,-7.7005,-7.7284,-7.7266,-7.7266,-7.7401,-7.7403,-7.7405,-7.7335,-7.733,-7.7325,-7.732,-7.7436,-7.7445,-7.7454,-7.7613,0,0,-7.7483,-7.7487,0,0,0,0,0,0,0,0,-7.7112,-7.7129,-7.7267,-7.7267,-7.7267,-7.7348,-7.7344,-7.7474,-7.7336,-7.7309,-7.7324,-7.7318,-7.7414,-7.7424,-7.7457,-7.7618,-7.7623,-7.7484,-7.7489,-7.7493,-7.7496,0,0,0,0,0,0,0,-7.7104,-7.7124,-7.733,-7.7269,-7.7269,-7.7251,-7.7263,-7.7369,-7.7388,-7.7311,-7.7306,-7.7321,-7.7413,-7.7449,-7.746,-7.7625,-7.7484,-7.7492,-7.7498,-7.7501,-7.792,-7.7925,0,0,0,0,0,0,-7.7097,-7.7117,-7.7327,-7.7334,-7.7176,-7.726,-7.7274,-7.7327,-7.7386,-7.7391,-7.7325,-7.7317,-7.7435,-7.7449,-7.7463,-7.765,-7.7493,-7.7502,-7.7508,-7.7914,-7.7921,-7.7927,0,0,0,0,0,0,-7.7091,-7.7116,-7.7322,-7.7224,-7.7249,-7.7271,-7.7331,-7.7332,-7.7368,-7.7397,-7.74,-7.7358,-7.7432,-7.745,-7.7576,-7.7653,-7.7506,-7.7515,-7.7908,-7.7917,-7.7924,-7.8027,0,0,0,0,0,0,-7.7083,-7.7115,-7.7175,-7.7226,-7.7255,-7.7433,-7.7336,-7.7338,-7.7384,-7.7375,-7.7429,-7.7433,-7.7429,-7.7562,-7.7585,-7.7664,-7.7522,-7.7901,-7.7912,-7.7922,-7.8016,-7.8038,-7.8056,0,0,0,0,0,-7.7073,-7.7199,-7.7179,-7.7204,-7.7331,-7.7438,-7.7454,-7.7447,-7.7391,-7.7451,-7.7471,-7.7432,-7.7643,-7.7576,-7.7601,-7.7683,-7.7896,-7.7909,-7.7921,-7.8008,-7.8033,-7.8055,0,0,0,0,0,0,-7.7155,-7.7206,-7.7183,-7.733,-7.7381,-7.7426,-7.7502,-7.7475,-7.7542,-7.753,-7.7518,-7.7531,-7.7662,-7.7686,-7.7611,-7.7839,-7.776,-7.7778,-7.7818,-7.7842,-7.7862,-7.7851,-7.753,0,0,0,0,0,-7.7191,-7.7275,-7.7314,-7.7439,-7.7466,-7.748,-7.7526,-7.7517,-7.7568,-7.7589,-7.7617,-7.7668,-7.7745,-7.7796,-7.7869,-7.8022,-7.8031,-7.8091,-7.811,-7.8126,-7.814,-7.8221,-7.8247,-7.7968,-7.7968,-7.7968,0,0,-7.7264,-7.7302,-7.7355,-7.7457,-7.7494,-7.758,-7.7498,-7.7592,-7.7654,-7.7603,-7.7722,-7.7746,-7.7801,-7.794,-7.8003,-7.7964,-7.822,-7.8142,-7.8154,-7.816,-7.8236,-7.8262,-7.8286,-7.7976,-7.7975,-7.7973,0,0,-7.7441,-7.748,-7.7587,-7.7627,-7.7686,-7.7695,-7.7722,-7.7772,-7.7785,-7.7906,-7.7868,-7.7943,-7.8077,-7.8117,-7.8155,-7.835,-7.8315,-7.8374,-7.8474,-7.8553,-7.8575,-7.8594,-7.866,-7.8684,-7.839,-7.839,-7.839,0,-7.7524,-7.7651,-7.7646,-7.7742,-7.7787,-7.7747,-7.7854,-7.7894,-7.7973,-7.8004,-7.7961,-7.8128,-7.8163,-7.831,-7.8357,-7.8391,-7.8418,-7.8365,-7.8573,-7.8592,-7.861,-7.8672,-7.8698,-7.8396,-7.8396,-7.8395,-7.8394,0,-7.7749,-7.7839,-7.7919,-7.7997,-7.8052,-7.8154,-7.8162,-7.8218,-7.8205,-7.8219,-7.8341,-7.8382,-7.8462,-7.8498,-7.8486,-7.8643,-7.8617,-7.8574,-7.8493,-7.8643,-7.8701,-7.8726,-7.8405,-7.8403,-7.8401,-7.84,0,0,-7.7976,-7.8052,-7.8081,-7.8116,-7.8179,-7.8247,-7.8348,-7.8427,-7.8473,-7.8531,-7.8613,-7.8729,-7.8689,-7.8733,-7.8725,-7.8795,-7.8943,-7.8743,-7.8744,-7.8775,-7.9115,-7.9144,-7.9172,-7.8923,-7.8927,-7.8931,-7.9109,0,-7.8154,-7.8329,-7.8327,-7.8489,-7.857,-7.8534,-7.8621,-7.8669,-7.8685,-7.8755,-7.8773,-7.8853,-7.8797,-7.8823,-7.8891,-7.891,-7.901,-7.8898,-7.8996,-7.8999,-7.8978,-7.9203,-7.9234,-7.9401,-7.9133,-7.9137,-7.914,0,-7.8383,-7.8448,-7.8618,-7.8669,-7.8703,-7.8781,-7.8853,-7.8922,-7.8975,-7.8982,-7.9032,-7.9014,-7.9115,-7.9036,-7.9173,-7.9097,-7.9138,-7.9154,-7.916,-7.9165,-7.9075,-7.921,-7.9454,-7.9477,-7.9176,-7.9173,-7.9171,0,-7.8526,-7.8658,-7.8775,-7.8807,-7.887,-7.8926,-7.8954,-7.9003,-7.9051,-7.9114,-7.9145,-7.9219,-7.9259,-7.9317,-7.9319,-7.9262,-7.9457,-7.9379,-7.9463,-7.9463,-7.9502,-7.9498,-7.9751,-7.9536,-7.9536,-7.9535,-7.9535,0,-7.8722,-7.8826,-7.8841,-7.8913,-7.9028,-7.9026,-7.914,-7.9164,-7.9208,-7.9283,-7.9259,-7.9329,-7.9331,-7.9403,-7.9407,-7.9518,-7.9537,-7.9544,-7.9543,-7.9544,-7.9542,-7.9566,-7.9553,-7.9542,-7.954,-7.9539,-7.9538,0,-7.89,-7.8914,-7.904,-7.909,-7.9106,-7.9188,-7.9231,-7.9299,-7.9314,-7.9409,-7.9432,-7.9455,-7.9539,-7.9549,-7.9647,-7.9649,-7.9782,-7.9771,-7.9764,-7.976,-7.9843,-7.9833,-8.0116,-8.0151,-7.9918,-7.992,-7.9922,0,-7.9021,-7.91,-7.916,-7.9209,-7.9241,-7.932,-7.9369,-7.9371,-7.9423,-7.949,-7.955,-7.9632,-7.9696,-7.9832,-7.9857,-7.9932,-7.9919,-8.0014,-7.993,-7.9928,-7.9916,-7.9909,-7.9916,-8.0028,-8.003,-8.0032,-8.0034,0,-7.9233,-7.9237,-7.9308,-7.9383,-7.9442,-7.9501,-7.9556,-7.9598,-7.9606,-7.9666,-7.9751,-7.9802,-7.9903,-7.9983,-8.0057,-8.0086,-8.0061,-8.0061,-8.0084,-8.0083,-8.0074,-8.0076,-7.9803,-8.0053,-8.0051,-8.005,-8.0049,-8.0048,-7.9384,-7.9452,-7.9504,-7.9585,-7.9627,-7.9679,-7.9745,-7.9769,-7.9841,-7.9923,-7.9921,-8.0015,-8.0066,-8.0163,-8.0198,-8.0271,-8.0239,-8.0273,-8.0281,-8.0288,-8.0294,-8.0067,-8.0285,-8.0284,-8.0284,-8.0283,-8.0283,0,-7.9592,-7.9624,-7.9699,-7.9776,-7.984,-7.9814,-7.9874,-7.9928,-8.0011,-8.0062,-8.0127,-8.0225,-8.0304,-8.0336,-8.0413,-8.0465,-8.0455,-8.0485,-8.0478,-8.0485,-8.032,-8.0291,-8.0491,-8.0491,-8.0491,-8.0491,-8.0491,-8.0491,-7.9707,-7.982,-7.983,-7.9964,-7.9995,-8.0088,-8.0124,-8.0171,-8.0212,-8.0323,-8.0388,-8.041,-8.0453,-8.0533,-8.0603,-8.0611,-8.0638,-8.0672,-8.0674,-8.0518,-8.0497,-8.0476,-8.0449,-8.0679,-8.0679,-8.0832,-8.0833,-8.0834]},{"header":{"parameterUnit":"m.s-1","parameterCategory":1,"la1":30.2991,"la2":30.254,"lo1":-89.0895,"lo2":-89.0444,"dy":0.0017,"dx":0.0017,"nx":28,"ny":28,"refTime":"2024-04-28T09:00:00:Z","depth":0,"parameterNumber":3,"parameterNumberName":"V-component_of_WINDS"},"data":[0,0,0,0,0,0,0,0,0,0,0,0,0,0,0,0,0,0,0,0,0,0,0,0,0,0,0,0,0,0,0,0,0,0,0,0,0,0,0,0,0,0,0,0,0,0,0,0,0,0,0,0,0,0,0,0,0,0,4.2651,4.2651,0,4.269,4.269,4.2691,4.2654,4.2652,4.2651,4.265,4.2685,4.2688,4.269,0,0,0,0,0,0,0,0,0,0,0,0,0,4.2541,4.2543,4.2651,4.2651,4.2652,4.269,4.269,4.2691,4.2654,4.2652,4.2651,4.2649,4.2685,4.2687,4.269,0,0,0,0,0,0,0,0,0,0,0,0,0,4.2585,4.2544,4.2651,4.2638,4.2637,4.269,4.269,4.2691,4.2655,4.2652,4.265,4.2648,4.2684,4.2687,4.2691,4.2756,0,0,4.2701,4.2703,0,0,0,0,0,0,0,0,4.2583,4.2589,4.264,4.2639,4.2638,4.2665,4.2665,4.2713,4.2655,4.2648,4.265,4.2647,4.268,4.2684,4.2696,4.2758,4.2759,4.2702,4.2704,4.2705,4.2706,0,0,0,0,0,0,0,4.258,4.2587,4.2666,4.264,4.264,4.263,4.2633,4.2674,4.2676,4.2648,4.2646,4.2651,4.2679,4.2693,4.2696,4.276,4.2701,4.2705,4.2707,4.2708,4.2878,4.288,0,0,0,0,0,0,4.2579,4.2585,4.2665,4.2667,4.2605,4.2633,4.2638,4.2659,4.2675,4.2676,4.2653,4.2649,4.2688,4.2692,4.2697,4.2775,4.2705,4.2708,4.271,4.2876,4.2878,4.2881,0,0,0,0,0,0,4.2577,4.2586,4.2663,4.2626,4.2635,4.2638,4.2661,4.266,4.2674,4.2679,4.2679,4.2666,4.2686,4.2693,4.2742,4.2776,4.271,4.2713,4.2873,4.2876,4.288,4.2931,0,0,0,0,0,0,4.2574,4.2586,4.2611,4.2627,4.2637,4.2708,4.2663,4.2663,4.268,4.2676,4.2691,4.2692,4.2685,4.2737,4.2746,4.2779,4.2716,4.287,4.2874,4.2879,4.2926,4.2936,4.2944,0,0,0,0,0,4.257,4.2623,4.2612,4.2622,4.2669,4.271,4.2716,4.2708,4.2683,4.2708,4.2712,4.2691,4.2771,4.2743,4.2752,4.2787,4.2867,4.2873,4.2878,4.2922,4.2934,4.2944,0,0,0,0,0,0,4.2609,4.2624,4.2613,4.2673,4.2691,4.2704,4.2735,4.2721,4.2745,4.274,4.2728,4.2732,4.2785,4.2791,4.2759,4.2852,4.2815,4.2823,4.2845,4.2856,4.2865,4.2862,4.2719,0,0,0,0,0,4.2625,4.2659,4.267,4.2721,4.2731,4.2732,4.275,4.2743,4.276,4.2767,4.2774,4.2791,4.282,4.2839,4.2866,4.2928,4.293,4.2957,4.2966,4.2973,4.2979,4.3012,4.3024,4.2899,4.2899,4.2899,0,0,4.2657,4.267,4.2691,4.273,4.2743,4.2777,4.2738,4.2776,4.28,4.2772,4.2819,4.2826,4.2844,4.29,4.2925,4.2907,4.3015,4.298,4.2986,4.2988,4.3019,4.3031,4.3041,4.2903,4.2902,4.2901,0,0,4.2734,4.2747,4.2792,4.2807,4.2828,4.2828,4.2839,4.2855,4.2859,4.2907,4.2886,4.2915,4.2965,4.2979,4.2993,4.3077,4.3059,4.3086,4.3132,4.3165,4.3174,4.3183,4.3212,4.3223,4.3093,4.3093,4.3093,0,4.2771,4.2822,4.2816,4.2856,4.2873,4.2852,4.2896,4.291,4.2938,4.295,4.293,4.2993,4.3004,4.3063,4.3084,4.3096,4.3107,4.3083,4.3174,4.3183,4.319,4.3218,4.3229,4.3096,4.3096,4.3095,4.3095,0,4.2867,4.2903,4.2936,4.2966,4.2988,4.3029,4.3029,4.3051,4.3043,4.3046,4.3095,4.3107,4.3137,4.3151,4.3142,4.3209,4.3197,4.3176,4.3138,4.3206,4.3231,4.3242,4.31,4.3099,4.3098,4.3098,0,0,4.2966,4.2994,4.3006,4.302,4.3043,4.307,4.3111,4.3142,4.316,4.3181,4.3215,4.3259,4.324,4.3256,4.3249,4.3278,4.3343,4.3253,4.3253,4.3268,4.3417,4.3432,4.3444,4.3333,4.3335,4.3336,4.3415,0,4.3042,4.3115,4.3112,4.3179,4.3212,4.3194,4.323,4.3247,4.3251,4.3279,4.3283,4.3315,4.3288,4.3297,4.3325,4.3329,4.3373,4.3324,4.3362,4.3363,4.3356,4.3458,4.3473,4.3547,4.3425,4.3427,4.3428,0,4.314,4.3167,4.3238,4.3257,4.3271,4.3303,4.3331,4.3359,4.3379,4.338,4.3398,4.3388,4.3428,4.3392,4.3448,4.3415,4.343,4.3435,4.3438,4.3439,4.3398,4.346,4.357,4.3581,4.3444,4.3443,4.3442,0,4.3204,4.3258,4.3307,4.332,4.3344,4.3367,4.3377,4.3395,4.3414,4.3439,4.3451,4.3479,4.3494,4.3516,4.3513,4.3487,4.357,4.3533,4.357,4.3571,4.3587,4.3585,4.3699,4.36,4.36,4.36,4.3599,0,4.3289,4.3333,4.3337,4.3367,4.3416,4.3412,4.346,4.3469,4.3485,4.3516,4.3502,4.3531,4.3526,4.3555,4.3553,4.3599,4.3606,4.3607,4.3605,4.3607,4.3607,4.3616,4.361,4.3602,4.3602,4.3601,4.3601,0,4.3367,4.3372,4.3425,4.3444,4.345,4.3485,4.3501,4.353,4.3534,4.3573,4.3582,4.3588,4.3622,4.3622,4.3659,4.3658,4.3714,4.3708,4.3708,4.3706,4.3743,4.3739,4.3864,4.388,4.3773,4.3774,4.3775,0,4.342,4.3454,4.3478,4.3499,4.3511,4.3545,4.3565,4.3563,4.3584,4.361,4.3635,4.3668,4.3693,4.3748,4.3755,4.3784,4.3777,4.3819,4.3781,4.3782,4.3776,4.3773,4.3776,4.3825,4.3827,4.3828,4.3828,0,4.3513,4.3514,4.3544,4.3576,4.3601,4.3625,4.3647,4.3665,4.3665,4.369,4.3725,4.3745,4.3785,4.3817,4.3846,4.3855,4.3842,4.3841,4.3851,4.3852,4.385,4.3851,4.3727,4.3837,4.3837,4.3836,4.3835,4.3835,4.358,4.3609,4.3631,4.3665,4.3682,4.3704,4.3732,4.3741,4.3771,4.3804,4.3801,4.384,4.3859,4.3897,4.3909,4.3939,4.3924,4.3939,4.3942,4.3945,4.3949,4.3848,4.3944,4.3944,4.3944,4.3944,4.3943,0,4.3671,4.3685,4.3717,4.3749,4.3776,4.3764,4.3789,4.3811,4.3846,4.3867,4.3893,4.3934,4.3966,4.3976,4.4007,4.4029,4.4023,4.4037,4.4034,4.4036,4.3961,4.3949,4.4041,4.404,4.404,4.404,4.404,4.404,4.3721,4.3771,4.3775,4.3832,4.3846,4.3885,4.39,4.392,4.3936,4.3983,4.401,4.4017,4.4033,4.4065,4.4094,4.4096,4.4107,4.4123,4.4123,4.4051,4.4042,4.4032,4.4021,4.4126,4.4126,4.4195,4.4196,4.4196]}]]